TimeEST,TemperatureF,Dew PointF,Humidity,Sea Level PressureIn,VisibilityMPH,Wind Direction,Wind SpeedMPH,Gust SpeedMPH,PrecipitationIn,Events,Conditions,WindDirDegrees,DateUTC
12:51 AM,48.0,32.0,54,30.29,10.0,SSE,4.6,-,N/A,,Mostly Cloudy,150,2011-12-15 05:51:00
1:51 AM,48.0,33.1,56,30.28,10.0,Calm,Calm,-,N/A,,Mostly Cloudy,0,2011-12-15 06:51:00
2:51 AM,44.6,35.6,71,30.29,10.0,SW,5.8,-,N/A,,Scattered Clouds,220,2011-12-15 07:51:00
3:51 AM,46.0,35.1,66,30.28,10.0,Calm,Calm,-,N/A,,Scattered Clouds,0,2011-12-15 08:51:00
4:51 AM,45.0,34.0,65,30.28,10.0,Calm,Calm,-,N/A,,Partly Cloudy,0,2011-12-15 09:51:00
5:51 AM,44.1,35.1,71,30.29,10.0,SSW,3.5,-,N/A,,Partly Cloudy,210,2011-12-15 10:51:00
6:51 AM,46.0,36.0,68,30.29,10.0,SSW,5.8,-,N/A,,Scattered Clouds,210,2011-12-15 11:51:00
7:51 AM,46.0,37.0,71,30.27,10.0,Calm,Calm,-,N/A,,Mostly Cloudy,0,2011-12-15 12:51:00
8:51 AM,51.1,41.0,68,30.27,10.0,SW,10.4,-,N/A,,Mostly Cloudy,230,2011-12-15 13:51:00
9:51 AM,55.9,44.1,64,30.27,10.0,SW,12.7,-,N/A,,Scattered Clouds,230,2011-12-15 14:51:00
10:51 AM,62.1,48.0,60,30.25,10.0,SW,15.0,21.9,N/A,,Scattered Clouds,230,2011-12-15 15:51:00
11:51 AM,64.0,46.9,54,30.22,10.0,WSW,15.0,23.0,N/A,,Mostly Cloudy,240,2011-12-15 16:51:00
12:51 PM,66.9,50.0,54,30.17,10.0,WSW,18.4,25.3,N/A,,Mostly Cloudy,240,2011-12-15 17:51:00
1:51 PM,66.0,51.1,59,30.15,10.0,WSW,15.0,29.9,N/A,,Mostly Cloudy,240,2011-12-15 18:51:00
2:51 PM,60.1,51.1,72,30.13,10.0,SW,17.3,21.9,N/A,,Scattered Clouds,230,2011-12-15 19:51:00
3:51 PM,66.0,51.1,59,30.12,10.0,SW,16.1,26.5,N/A,,Mostly Cloudy,230,2011-12-15 20:51:00
4:51 PM,64.0,51.1,63,30.12,10.0,SSW,11.5,-,N/A,,Mostly Cloudy,210,2011-12-15 21:51:00
5:51 PM,63.0,51.1,65,30.11,10.0,SSW,10.4,-,N/A,,Mostly Cloudy,200,2011-12-15 22:51:00
6:51 PM,63.0,51.1,65,30.08,10.0,SSW,10.4,-,N/A,,Mostly Cloudy,200,2011-12-15 23:51:00
7:51 PM,60.1,51.1,72,30.11,10.0,SW,8.1,-,N/A,,Scattered Clouds,230,2011-12-16 00:51:00
8:51 PM,59.0,51.1,75,30.11,10.0,SW,6.9,-,N/A,,Mostly Cloudy,220,2011-12-16 01:51:00
9:51 PM,57.9,51.1,78,30.10,10.0,SW,10.4,-,N/A,,Mostly Cloudy,230,2011-12-16 02:51:00
10:51 PM,57.9,51.1,78,30.10,10.0,SSW,10.4,-,N/A,,Scattered Clouds,210,2011-12-16 03:51:00
11:51 PM,55.9,50.0,80,30.10,10.0,SW,6.9,-,N/A,,Scattered Clouds,230,2011-12-16 04:51:00